Location: Noordwijk
(52.2400°N, 4.4500°E)
Time: 21:28:52
(UTC+00:00)

AO-7 - Pass Details

Date: 07 December 2022
Orbit: 1440 x 1459 km, 101.9° (Epoch: 01 February)

Event Time Altitude Azimuth Distance (km) Brightness Sun altitude
Rises 02:47:22 0° 25° (NNE) 4,548 ? -42.7°
Reaches altitude 10° 02:51:12 10° 42° (NE) 3,567 ? -42.2°
Maximum altitude 02:57:01 20° 87° (E) 2,837 ? -41.3°
Drops below altitude 10° 03:02:48 10° 132° (SE) 3,561 ? -40.5°
Sets 03:06:35 0° 148° (SSE) 4,537 ? -39.9°
